{"data":{"norad_id":49309,"epoch":"2026-05-25T02:52:52.790016Z","epoch_age_seconds":57864,"freshness":"FRESH","line1":"1 49309U 21090AG  26145.12005544 -.00000089  00000+0 -27391-3 0  9999","line2":"2 49309  87.8954 294.2984 0001923  92.8253 267.3097 13.14503902224561","mean_motion":13.14503902,"eccentricity":0.0001923,"inclination_deg":87.8954,"raan_deg":294.2984,"arg_perigee_deg":92.8253,"mean_anomaly_deg":267.3097,"bstar":-0.00027391,"rev_number":22456,"period_min":109.54703122669,"perigee_km":1204.3277276263,"apogee_km":1207.2445044567,"semimajor_km":7583.9231160415,"source":"CELESTRAK","updated_at":"2026-05-25T13:38:22.526117Z"}}